Airfield :







YOU CAN JOIN US ON...

 
LOGIN :

Register | Disclaimer

   EN    FR    IT 

 









Legend :    VFR   Marginal VFR   IFR   Intensive IFR   Very Intensive IFR
Visi :
Ceiling :
>= 8 km
>= 3000ft
5 to 8 km
1000 to 3000 ft
1500m to 5 km
500 to 1000 ft
800 to 1500m
200 to 500 ft
< 800m
< 200 ft
Symbols :   Thunderstorms  Fog  Heavy snow  Heavy precipitations  Wind > 20 kt







- Airport Elevation : 76 ft
- IATA code : EGS


BIEG - Egilsstaðir

CURRENT METAR :
  • 180400Z 36007KT 9999 FEW006 SCT012 OVC020 03/02 Q1004

EXPIRED METARs :
  • 180300Z 01008KT 9999 FEW008 SCT012 OVC020 03/02 Q1005 RERA
  • 180200Z 01010KT 9999 -RA FEW008 SCT012 OVC020 04/02 Q1005

TAF TAF BIEG
Valid from the 18 at 03:00 until the 19 at 03:00 UTC


180030Z 1803/1903 01012KT 9999 -RA BKN010 OVC018 TX06/1815Z TN02/1803Z
PROB40
TEMPO 1803/1809 3000 DZ BR OVC005
No reported NOTAMs for that airfield.



MET'MAP, your aeronautical weather chart ! - Copyright ORBIFLY December 2007 - Disclaimer

ORBIFLY MET'MAP TEAM :

Programming & Development : Alexandra Zaïnal
Concept & Development : Baudouin d'Aumeries
Co-Development & Prog : Marc-Olivier Méhu
Technical & hardware support : Manuel Goepfert

Contact : metmap@orbifly.com




SOURCES & CREDITS :

   NOAA